Plymouth, MA

9:50 AM EST on December 15, 2017 (GMT -0500)
Plymouth Municipal

Weather History for KPYM - November, 2013

Change the Weather History Date:

Thursday, November 14, 2013

  Actual Average Record
Temperature  
Mean Temperature 40 °F -  
Max Temperature 51 °F 50 °F 72 °F (1959)
Min Temperature 28 °F 32 °F 15 °F (1986)
Degree Days  
Heating Degree Days 26    
Moisture  
Dew Point 20 °F    
Average Humidity 46    
Maximum Humidity 63    
Minimum Humidity 29    
Precipitation  
Precipitation 0.00 in - - ()
Sea Level Pressure  
Sea Level Pressure 30.12 in    
Wind  
Wind Speed 8 mph (SW)    
Max Wind Speed 16 mph    
Max Gust Speed 25 mph    
Visibility 10 miles    
Events      
Averages and records for this station are not official NWS values.
T = Trace of Precipitation, MM = Missing Value Source: NWS Daily Summary

Daily Weather History Graph

Daily Weather History Graph

Search for Another Location

Airport or City:

Trip Planner

Search our weather history database for the weather conditions in past years. The results will help you decide how hot, cold, wet, or windy it might be!

Date:

Astronomy

Nov. 14, 2013 Rise Set
Actual Time 6:31 AM EST 4:22 PM EST
Civil Twilight 6:01 AM EST 4:52 PM EST
Nautical Twilight 5:28 AM EST 5:26 PM EST
Astronomical Twilight 4:55 AM EST 5:59 PM EST
Moon 2:44 PM EST (11/14) 3:20 AM EST (11/14)
Length of Visible Light 10h 50m
Length of Day
9h 51m
Waxing Gibbous, 91% of the Moon is Illuminated
Nov 14
Waxing Gibbous
Nov 17
Full
Nov 25
Last Quarter
Dec 2
New
Dec 9
First Quarter

Hourly Weather History & Observations

Time (EST) Temp. Windchill Dew Point Humidity Pressure Visibility Wind Dir Wind Speed Gust Speed Precip Events Conditions
12:52 AM 28.0 °F 22.8 °F 15.1 °F 58% 30.19 in 10.0 mi SSW 4.6 mph - N/A   Clear
1:52 AM 28.0 °F 21.7 °F 16.0 °F 61% 30.17 in 10.0 mi SSW 5.8 mph - N/A   Clear
2:52 AM 28.9 °F 22.8 °F 16.0 °F 58% 30.15 in 10.0 mi SSW 5.8 mph - N/A   Clear
3:52 AM 28.9 °F 21.9 °F 17.1 °F 61% 30.14 in 10.0 mi SSW 6.9 mph - N/A   Clear
4:52 AM 28.0 °F 21.7 °F 17.1 °F 63% 30.13 in 10.0 mi WSW 5.8 mph - N/A   Clear
5:52 AM 32.0 °F 24.8 °F 19.0 °F 59% 30.12 in 10.0 mi WSW 8.1 mph - N/A   Clear
6:52 AM 35.1 °F 26.9 °F 18.0 °F 50% 30.12 in 10.0 mi WSW 11.5 mph - N/A   Clear
7:52 AM 37.9 °F 30.0 °F 18.0 °F 45% 30.14 in 10.0 mi WSW 12.7 mph - N/A   Clear
8:52 AM 41.0 °F 34.3 °F 18.0 °F 40% 30.14 in 10.0 mi WSW 11.5 mph - N/A   Clear
9:52 AM 45.0 °F 38.5 °F 16.0 °F 31% 30.13 in 10.0 mi WSW 13.8 mph - N/A   Clear
10:52 AM 46.9 °F - 16.0 °F 29% 30.11 in 10.0 mi West 15.0 mph 25.3 mph N/A   Clear
11:52 AM 48.9 °F - 18.0 °F 29% 30.09 in 10.0 mi WSW 16.1 mph 24.2 mph N/A   Clear
12:52 PM 50.0 °F - 19.0 °F 29% 30.06 in 10.0 mi West 15.0 mph - N/A   Clear
1:52 PM 51.1 °F - 19.9 °F 29% 30.06 in 10.0 mi WSW 15.0 mph - N/A   Clear
2:52 PM 51.1 °F - 19.9 °F 29% 30.07 in 10.0 mi West 15.0 mph - N/A   Clear
3:52 PM 48.9 °F - 21.0 °F 33% 30.08 in 10.0 mi WSW 9.2 mph - N/A   Clear
4:52 PM 44.1 °F 40.1 °F 21.9 °F 42% 30.10 in 10.0 mi SW 6.9 mph - N/A   Clear
5:52 PM 43.0 °F 38.8 °F 21.9 °F 43% 30.12 in 10.0 mi SSW 6.9 mph - N/A   Clear
6:52 PM 43.0 °F 38.8 °F 25.0 °F 49% 30.14 in 10.0 mi SSW 6.9 mph - N/A   Clear
7:52 PM 41.0 °F 36.4 °F 25.0 °F 53% 30.14 in 10.0 mi SSW 6.9 mph - N/A   Clear
8:52 PM 42.1 °F 40.2 °F 25.0 °F 51% 30.14 in 10.0 mi SSW 3.5 mph - N/A   Clear
9:52 PM 42.1 °F 37.1 °F 28.0 °F 58% 30.15 in 10.0 mi SW 8.1 mph - N/A   Clear
10:52 PM 39.0 °F 34.8 °F 26.1 °F 60% 30.15 in 10.0 mi SW 5.8 mph - N/A   Clear
11:52 PM 41.0 °F 37.1 °F 23.0 °F 49% 30.15 in 10.0 mi SW 5.8 mph - N/A   Clear